Location: Zihuatanejo
(17.6330°N, 101.5500°W)
Time: 07:36:39
(UTC-05:00)

Tiangong 2 - Pass Details

Date: 26 March 2019
Orbit: 378 x 390 km, 42.8° (Epoch: 25 April)

Event Time Altitude Azimuth Distance (km) Brightness Sun altitude
Rises 21:31:47 0° 239° (WSW) 2,231 5.7 -22.9°
Reaches altitude 10° 21:33:54 10° 246° (WSW) 1,379 4.6 -23.4°
Enters shadow 21:35:58 32° 273° (W) 662 2.8 -23.9°
